Regional Weather Roundup
Issued by NWS

Home | Current Version | Previous Version | Graphics & Text | Print | Product List | Glossary On
Versions: 1 2 3 4 5 6 7 8 9 10 11 12 13 14 15 16 17 18 19 20 21 22 23 24 25 26 27 28 29 30 31 32 33 34 35 36 37 38 39 40 41 42 43 44 45 46 47 48 49 50
685
ASUS45 KBOI 210210
RWRID

IDAHO REGIONAL WEATHER ROUNDUP
NATIONAL WEATHER SERVICE BOISE ID
700 PM MST FRI JAN 20 2017

NOTE: "FAIR" INDICATES FEW OR NO CLOUDS BELOW 12000 FEET
WITH NO SIGNIFICANT WEATHER AND/OR OBSTRUCTIONS TO VISIBILITY

IDZ012-014-210300-
SOUTHWEST IDAHO


CITY           SKY/WX    TMP DP  RH WIND       PRES   REMARKS
BOISE          CLOUDY    37  28  70 SE9       29.25R WCI  30
CALDWELL       CLOUDY    35  31  85 SE17      29.27R WCI  25
MOUNTAIN HOME  CLOUDY    36  31  83 E22       29.26R WCI  25
$$

IDZ016-017-210300-
SOUTHCENTRAL IDAHO


CITY           SKY/WX    TMP DP  RH WIND       PRES   REMARKS
BURLEY         CLOUDY    34  26  72 N7        29.28S WCI  28
JEROME         CLOUDY    30  24  78 NE10      29.29R WCI  21
TWIN FALLS     CLOUDY    34  25  69 SW7       29.27S WCI  28
$$

IDZ019>023-210300-
SOUTHEAST IDAHO


CITY           SKY/WX    TMP DP  RH WIND       PRES   REMARKS
IDAHO FALLS    CLOUDY    15  14  95 N3        29.37F
POCATELLO      CLOUDY    29  23  78 CALM      29.35S
REXBURG        CLOUDY    16  15  96 NE3       29.38S
$$

IDZ006-010-011-018-031-032-210300-
CENTRAL IDAHO MOUNTAINS


CITY           SKY/WX    TMP DP  RH WIND       PRES   REMARKS
MCCALL         MOCLDY    23  20  88 NE6       29.18F WCI  16
HAILEY         CLOUDY    30  25  80 CALM      29.31F
STANLEY          N/A     23  16  74 SE3       29.24F
SALMON         CLEAR     12  12 100 CALM      29.35S
CHALLIS        CLOUDY    11  10  96 CALM      29.33S
$$

IDZ002-004-006-007-026-210300-
NORTHERN IDAHO


CITY           SKY/WX    TMP DP  RH WIND       PRES   REMARKS
LEWISTON       CLOUDY    37  30  75 VRB3      29.22S
LOWELL           N/A     33  31  92 CALM      29.29R
COEUR D`ALENE  PTCLDY    36  31  82 N14       29.25S WCI  27
MULLAN PASS    CLOUDY    25  22  88 SE8       29.23S WCI  16
$$




USA.gov is the U.S. government's official web portal to all federal, state and local government web resources and services.